Stations météo

réclame
Mon MeteoGroup
Tarbes/Ossun, France (7621): Température de l'air & dewpoint: 14.11.2017 12:00:00 - 20.11.2017 12:00:00 (CET)Tarbes/Ossun, France (7621): Température de l'air 5cm: 14.11.2017 12:00:00 - 20.11.2017 12:00:00 (CET)Tarbes/Ossun, France (7621): Température de l'air -20cm & Température de l'air -100cm: 14.11.2017 12:00:00 - 20.11.2017 12:00:00 (CET)Tarbes/Ossun, France (7621): Vitesse du vent & gusts: 14.11.2017 12:00:00 - 20.11.2017 12:00:00 (CET)Tarbes/Ossun, France (7621): Direction du vent: 14.11.2017 12:00:00 - 20.11.2017 12:00:00 (CET)Tarbes/Ossun, France (7621): reduced air pressure: 14.11.2017 12:00:00 - 20.11.2017 12:00:00 (CET)Tarbes/Ossun, France (7621): visibility: 14.11.2017 12:00:00 - 20.11.2017 12:00:00 (CET)Tarbes/Ossun, France (7621): Ensoleillement: 14.11.2017 12:00:00 - 20.11.2017 12:00:00 (CET)Tarbes/Ossun, France (7621): Quantités de précipitations: 14.11.2017 12:00:00 - 20.11.2017 12:00:00 (CET)
Date & Time tt [°C] td [°C] tt 5cm [°C] tt -20cm [°C] tt -100cm [°C] ff [km/h] ff [knt] fx [km/h] fx [knt] dd ppp [hPa] vv [km] sd [min] rr [mm]
20.11.2017 12:00:00 10,4 3,7 13,9 8,0 12,3 4 2 10 5 - 1024,1 10 60 0,0
20.11.2017 11:00:00 7,6 3,4 4,9 8,1 12,3 2 1 6 3 - 1025,0 10 60 0,0
20.11.2017 10:00:00 3,9 2,7 -1,2 8,1 12,3 0 0 8 4 N 1025,7 10 60 0,0
20.11.2017 09:00:00 0,0 -0,6 -4,6 8,3 12,3 5 3 7 4 SSE 1026,3 10 37 0,0
20.11.2017 08:00:00 -1,2 -2,0 -4,6 8,4 12,3 4 2 9 5 - 1026,6 10 0 0,0
20.11.2017 07:00:00 -1,9 -2,9 -4,7 8,4 12,3 5 3 6 4 S 1026,3 57 0 0,0
20.11.2017 06:00:00 -0,4 -1,1 -4,6 8,5 12,3 5 3 10 5 S 1025,7 10 0 0,0
20.11.2017 05:00:00 -0,8 -1,9 -4,3 8,6 12,3 2 1 11 6 - 1025,7 10 0 0,0
20.11.2017 04:00:00 0,4 -0,3 -4,1 8,7 12,3 8 4 10 5 S 1025,8 10 0 0,0
20.11.2017 03:00:00 0,8 0,5 -4,2 8,8 12,4 5 3 9 5 SSE 1026,6 10 0 0,0
20.11.2017 02:00:00 -0,8 -1,6 -3,6 8,9 12,4 4 2 8 5 S 1027,2 10 0 0,0
20.11.2017 01:00:00 0,1 -0,8 -3,6 9,0 12,4 2 1 8 5 SSE 1027,6 10 0 0,0
20.11.2017 00:00:00 1,2 0,6 -3,1 9,0 12,4 2 1 10 5 SSE 1027,6 9 0 0,0
19.11.2017 23:00:00 0,8 -0,2 -2,7 9,1 12,4 5 3 8 4 SSW 1027,5 10 0 0,0
19.11.2017 22:00:00 1,3 0,3 -2,2 9,1 12,4 5 3 10 5 S 1027,4 10 0 0,0
19.11.2017 21:00:00 1,9 0,1 -1,7 9,1 12,4 5 3 8 4 S 1027,2 10 0 0,0
19.11.2017 20:00:00 3,1 1,5 -0,9 9,1 12,4 5 3 8 4 SSE 1027,2 10 0 0,0
19.11.2017 19:00:00 4,0 2,3 0,2 9,0 12,4 4 2 7 4 S 1026,6 22 0 0,0
19.11.2017 18:00:00 6,4 1,5 0,7 8,9 12,4 0 0 10 6 N 1025,9 10 0 0,0
19.11.2017 17:00:00 10,2 4,3 7,5 8,8 12,4 9 5 15 8 N 1024,7 10 60 0,0
19.11.2017 16:00:00 12,1 3,6 15,4 8,7 12,4 9 5 18 10 NNE 1024,2 10 60 0,0
19.11.2017 15:00:00 12,4 3,9 19,3 8,6 12,4 11 6 17 9 N 1024,5 60 60 0,0
19.11.2017 14:00:00 12,0 2,4 21,5 8,5 12,4 5 3 15 8 - 1025,1 10 60 0,0
19.11.2017 13:00:00 11,3 4,0 18,5 8,5 12,4 2 1 14 7 - 1025,3 10 60 0,0
19.11.2017 12:00:00 10,0 4,4 15,0 8,6 12,4 8 4 16 8 NNE 1025,9 10 60 0,0
19.11.2017 11:00:00 9,6 4,6 6,9 8,7 12,4 5 3 10 6 NNE 1025,9 50 60 0,0
19.11.2017 10:00:00 6,4 3,2 0,1 8,7 12,4 5 3 13 7 - 1026,3 10 55 0,0
19.11.2017 09:00:00 1,8 1,1 -3,6 8,8 12,5 8 4 13 7 SSE 1026,9 10 38 0,0
19.11.2017 08:00:00 0,3 -0,6 -3,4 8,9 12,5 9 5 12 6 S 1026,7 10 0 0,0
19.11.2017 07:00:00 0,7 0,1 -2,8 9,0 12,4 8 4 14 8 SSE 1026,3 10 0 0,0
19.11.2017 06:00:00 1,1 0,1 -2,0 9,1 12,5 8 4 15 8 S 1026,1 10 0 0,0
19.11.2017 05:00:00 2,0 0,7 -2,0 9,1 12,5 13 7 16 9 S 1025,9 10 0 0,0
19.11.2017 04:00:00 2,6 1,3 -2,0 9,2 12,5 9 5 13 7 S 1025,8 10 0 0,0
19.11.2017 03:00:00 1,9 1,0 - - - 9 5 13 7 S 1025,7 10 - 0,0
19.11.2017 02:00:00 2,6 1,6 -1,2 9,2 12,5 5 3 12 7 S 1025,4 10 0 0,0
19.11.2017 01:00:00 4,5 3,6 0,8 9,2 12,5 9 5 10 6 S 1025,4 6 0 0,0
19.11.2017 00:00:00 6,1 5,2 4,5 9,2 12,5 4 2 6 3 NNE 1025,7 6 0 0,0
18.11.2017 23:00:00 6,8 5,7 6,2 9,2 12,5 4 2 7 4 NNW 1025,5 9 0 0,0
18.11.2017 22:00:00 6,6 5,9 - - - 0 0 4 2 N 1025,8 8 - -
18.11.2017 21:00:00 5,8 5,2 2,0 9,3 12,5 3 2 9 5 SSW 1025,7 14 0 0,0
18.11.2017 20:00:00 3,7 2,8 1,5 9,2 12,5 5 3 8 4 SSW 1025,9 8 0 0,0
18.11.2017 19:00:00 6,6 5,1 0,0 9,1 12,5 2 1 11 6 N 1025,3 9 0 0,0
18.11.2017 18:00:00 8,1 5,2 4,2 9,0 12,5 9 5 13 7 NE 1024,9 18 0 0,0
18.11.2017 17:00:00 10,7 7,0 9,7 8,9 12,5 10 5 15 8 NNE 1024,0 35 35 0,0
18.11.2017 16:00:00 12,9 6,7 13,7 8,8 12,5 11 6 16 9 NW 1023,5 10 57 0,0
18.11.2017 15:00:00 11,8 6,5 12,2 8,7 12,6 5 3 11 6 W 1023,5 10 4 0,0
18.11.2017 14:00:00 11,3 6,4 12,2 8,6 12,5 8 4 21 11 W 1023,9 10 7 0,0
18.11.2017 13:00:00 11,3 6,6 13,5 8,6 12,6 9 5 16 9 NW 1024,1 10 27 0,0
18.11.2017 12:00:00 12,1 7,4 13,9 8,6 12,5 5 3 18 10 WSW 1024,4 10 48 0,0
18.11.2017 11:00:00 11,3 6,8 8,0 8,6 12,6 9 5 16 9 W 1024,8 10 58 0,0
18.11.2017 10:00:00 8,3 4,5 3,8 8,7 12,6 9 5 16 8 SSE 1024,9 10 60 0,0
18.11.2017 09:00:00 5,2 2,5 1,3 8,7 12,6 12 6 16 9 SSE 1025,0 44 40 0,0
18.11.2017 08:00:00 3,1 1,6 0,8 8,8 12,6 13 7 16 9 SSE 1025,1 10 0 0,0
18.11.2017 07:00:00 4,0 2,0 1,9 8,9 12,6 13 7 18 10 S 1024,7 10 0 0,0
18.11.2017 06:00:00 3,7 2,2 1,4 8,9 12,6 16 8 18 10 S 1024,8 34 0 0,0
18.11.2017 05:00:00 3,5 2,3 -0,6 8,9 12,6 13 7 16 9 SSE 1024,9 10 0 0,0
18.11.2017 04:00:00 4,4 2,7 1,8 9,0 12,6 9 5 18 10 S 1024,8 10 0 0,0
18.11.2017 03:00:00 4,7 3,2 0,7 9,0 12,6 9 5 13 7 SSE 1024,7 15 0 0,0
18.11.2017 02:00:00 4,9 3,6 2,5 9,1 12,7 8 4 13 7 SSE 1024,7 10 0 0,0
18.11.2017 01:00:00 4,8 3,8 -0,9 9,1 12,7 10 6 14 8 SSE 1024,8 16 0 0,0
18.11.2017 00:00:00 4,3 3,0 -0,6 9,2 12,7 9 5 15 8 SSE 1024,7 10 0 0,0
17.11.2017 23:00:00 3,3 1,8 -0,9 9,2 12,7 8 4 15 8 S 1025,1 10 0 0,0
17.11.2017 22:00:00 5,1 3,8 -0,8 9,3 12,7 11 6 16 8 SSE 1024,7 10 0 0,0
17.11.2017 21:00:00 4,2 3,6 -0,4 9,3 12,7 8 4 12 6 S 1024,9 10 0 0,0
17.11.2017 20:00:00 4,5 3,0 0,3 9,2 12,7 8 4 11 6 S 1025,1 10 0 0,0
17.11.2017 19:00:00 4,9 2,8 1,2 9,1 12,7 5 3 11 6 SSE 1024,8 10 0 0,0
17.11.2017 18:00:00 7,6 4,0 2,3 9,0 12,7 5 3 13 7 SW 1023,7 10 2 0,0
17.11.2017 17:00:00 11,3 5,4 8,3 8,8 12,7 9 5 14 7 NW 1022,7 10 30 0,0
17.11.2017 16:00:00 13,7 5,1 15,4 8,7 12,7 9 5 16 9 WNW 1022,1 10 60 0,0
17.11.2017 15:00:00 14,9 4,6 22,3 8,6 12,7 11 6 18 10 W 1021,9 10 60 0,0
17.11.2017 14:00:00 14,6 5,9 22,6 8,4 12,7 11 6 22 12 W 1022,3 10 60 0,0
17.11.2017 13:00:00 14,5 5,3 21,8 8,4 12,7 8 4 16 8 WNW 1022,5 38 60 0,0
17.11.2017 12:00:00 14,8 5,8 18,2 8,4 12,8 2 1 8 5 - 1022,9 10 60 0,0
17.11.2017 11:00:00 12,4 5,1 10,0 8,4 12,8 2 1 8 5 - 1023,7 10 35 0,0
17.11.2017 10:00:00 7,9 3,7 5,2 8,5 12,8 5 3 14 8 SSE 1024,4 10 36 0,0
17.11.2017 09:00:00 5,1 2,6 -0,4 8,6 12,8 9 5 14 8 SE 1025,0 10 41 0,0
17.11.2017 08:00:00 2,0 -0,3 - - - 9 5 16 9 S 1025,1 10 - 0,0
17.11.2017 07:00:00 2,0 0,7 -1,6 8,7 12,8 9 5 13 7 SSE 1025,0 10 0 0,0
17.11.2017 06:00:00 2,2 0,6 -0,8 8,8 12,8 9 5 12 7 SSE 1024,7 10 0 0,0
17.11.2017 05:00:00 3,1 0,8 -1,4 8,9 12,8 7 4 20 11 SSE 1024,7 60 0 0,0
17.11.2017 04:00:00 2,9 0,8 -0,8 8,9 12,8 8 4 14 8 SSE 1024,6 10 0 0,0
17.11.2017 03:00:00 2,6 1,6 -1,6 9,0 12,8 11 6 14 7 SSE 1024,4 10 0 0,0
17.11.2017 02:00:00 2,6 0,8 -1,0 9,0 12,8 5 3 13 7 S 1024,5 31 0 0,0
17.11.2017 01:00:00 2,4 1,2 -0,8 9,1 12,9 5 3 13 7 S 1024,7 10 0 0,0
17.11.2017 00:00:00 3,1 2,4 -0,5 9,1 12,9 8 4 10 6 S 1024,6 10 0 0,0
16.11.2017 23:00:00 3,5 2,5 0,3 9,1 12,9 8 4 11 6 SSE 1024,6 10 0 0,0
16.11.2017 22:00:00 3,1 2,2 0,2 9,1 12,9 5 3 12 6 S 1025,0 6 0 0,0
16.11.2017 21:00:00 3,6 2,0 -0,8 9,1 12,9 11 6 12 7 S 1024,9 10 0 0,0
16.11.2017 20:00:00 4,4 2,4 0,7 9,0 12,9 5 3 12 7 S 1024,6 10 0 0,0
16.11.2017 19:00:00 5,3 3,1 1,4 8,9 12,9 9 5 11 6 SSW 1024,2 42 0 0,0
16.11.2017 18:00:00 9,9 4,3 4,2 8,7 12,9 8 4 11 6 NNW 1022,9 10 11 0,0
16.11.2017 17:00:00 13,3 5,7 10,4 8,6 13,0 5 3 9 5 NNE 1022,0 50 57 0,0
16.11.2017 16:00:00 15,4 5,0 18,9 8,4 12,9 5 3 13 7 N 1020,9 10 60 0,0
16.11.2017 15:00:00 15,8 5,1 24,1 8,3 12,9 5 3 13 7 NNW 1020,5 50 60 0,0
16.11.2017 14:00:00 14,6 3,7 23,1 8,2 12,9 8 5 17 9 NNE 1021,0 41 60 0,0
16.11.2017 13:00:00 14,3 3,7 21,9 8,1 12,9 8 4 20 11 NNE 1021,1 10 60 0,0
16.11.2017 12:00:00 14,2 4,5 18,8 8,2 13,0 9 5 16 8 NE 1021,4 10 60 0,0
16.11.2017 11:00:00 12,4 4,8 8,6 8,2 13,0 5 3 14 7 - 1021,7 10 60 0,0
16.11.2017 10:00:00 7,6 3,6 0,1 8,3 13,0 11 6 13 7 SSE 1022,4 10 57 0,0
16.11.2017 09:00:00 2,8 0,7 -2,0 8,4 13,0 9 5 14 7 SSE 1023,1 10 43 0,0
16.11.2017 08:00:00 0,7 0,3 -3,6 8,4 13,0 11 6 14 8 SSE 1022,8 10 0 0,0
16.11.2017 07:00:00 0,3 -0,8 -3,1 8,5 13,0 9 5 13 7 SSE 1022,3 37 0 0,0
16.11.2017 06:00:00 1,0 0,3 -2,3 8,6 13,1 9 5 13 7 SSE 1021,7 10 0 0,0
16.11.2017 05:00:00 0,8 -0,5 -2,3 8,7 13,1 11 6 14 8 S 1021,7 10 0 0,0
16.11.2017 04:00:00 0,6 -0,4 -2,3 8,7 13,1 11 6 13 7 SSW 1022,0 10 0 0,0
16.11.2017 03:00:00 2,0 1,0 -0,9 8,8 13,1 11 6 17 9 SSE 1022,1 10 0 0,0
16.11.2017 02:00:00 1,6 0,7 -2,3 8,8 13,1 11 6 15 8 SSE 1022,3 10 0 0,0
16.11.2017 01:00:00 0,4 -0,7 -2,1 8,9 13,1 9 5 12 6 S 1022,6 10 0 0,0
16.11.2017 00:00:00 0,9 -0,1 -2,0 8,9 13,1 8 4 13 7 SSE 1022,4 10 0 0,0
15.11.2017 23:00:00 1,7 1,0 -2,5 9,0 13,1 11 6 13 7 SSE 1022,3 10 0 0,0
15.11.2017 22:00:00 0,8 -0,2 -2,2 9,0 13,1 5 3 8 4 S 1022,6 10 0 0,0
15.11.2017 21:00:00 1,7 0,1 -1,7 9,0 13,1 5 3 8 4 SSE 1022,8 10 0 0,0
15.11.2017 20:00:00 2,9 1,1 -0,7 8,9 13,2 5 3 8 4 SSE 1022,6 10 0 0,0
15.11.2017 19:00:00 4,0 2,5 - - - 8 4 11 6 SSW 1021,8 10 - -
15.11.2017 18:00:00 6,0 2,6 2,7 8,8 13,2 9 5 10 6 SW 1021,3 10 12 0,0
15.11.2017 17:00:00 9,0 2,3 7,1 8,6 13,2 5 3 11 6 NNE 1020,8 10 10 0,0
15.11.2017 16:00:00 10,5 2,3 12,5 8,5 13,2 8 4 14 7 NNW 1020,7 10 48 0,0
15.11.2017 15:00:00 10,8 1,6 13,4 8,4 13,2 8 4 13 7 N 1020,5 10 31 0,0
15.11.2017 14:00:00 10,6 0,6 15,7 8,4 13,2 5 3 22 12 NNE 1020,8 10 54 0,0
15.11.2017 13:00:00 9,7 0,8 17,2 8,4 13,2 5 3 16 9 - 1021,6 10 60 0,0
15.11.2017 12:00:00 8,4 1,1 12,3 8,5 13,2 9 5 20 11 NNE 1022,8 10 60 0,0
15.11.2017 11:00:00 6,7 0,1 3,8 8,5 13,2 5 3 12 6 NNW 1023,5 10 60 0,0
15.11.2017 10:00:00 2,9 0,5 -0,7 8,6 13,2 5 3 9 5 - 1023,7 10 32 0,0
15.11.2017 09:00:00 0,3 -1,5 -2,9 8,7 13,2 8 4 17 9 SSE 1024,2 10 34 0,0
15.11.2017 08:00:00 -0,8 -2,4 -4,4 8,8 13,2 11 6 12 7 SSE 1024,8 10 0 0,0
15.11.2017 07:00:00 -1,3 -2,4 -5,4 8,9 13,2 8 4 11 6 SSE 1024,6 10 0 0,0
15.11.2017 06:00:00 -2,6 -3,6 -5,4 9,0 13,2 6 3 9 5 SSW 1024,7 60 0 0,0
15.11.2017 05:00:00 -2,8 -3,8 -5,2 9,1 13,3 8 4 11 6 S 1024,9 10 0 0,0
15.11.2017 04:00:00 -2,5 -3,3 -5,8 9,2 13,3 5 3 10 5 S 1025,1 10 0 0,0
15.11.2017 03:00:00 -1,8 -2,8 -5,2 9,3 13,3 5 3 14 7 SE 1025,5 10 0 0,0
15.11.2017 02:00:00 -1,1 -2,1 -3,7 9,4 13,3 9 5 15 8 SSE 1025,9 10 0 0,0
15.11.2017 01:00:00 -1,4 -2,4 -3,7 9,5 13,3 8 5 13 7 S 1026,7 48 0 0,0
15.11.2017 00:00:00 -1,0 -2,0 -3,8 9,6 13,3 9 5 14 8 S 1027,1 10 0 0,0
14.11.2017 23:00:00 -0,7 -1,7 -3,7 9,7 13,3 9 5 14 7 S 1027,3 10 0 0,0
14.11.2017 22:00:00 0,6 -0,3 -2,9 9,7 13,3 8 5 11 6 SSE 1027,1 32 0 0,0
14.11.2017 21:00:00 1,1 0,1 - - - 8 4 11 6 SSE 1027,2 10 - 0,0
14.11.2017 20:00:00 1,3 0,3 -2,1 9,7 13,3 5 3 12 6 S 1027,3 47 0 0,0
14.11.2017 19:00:00 1,7 0,1 -1,6 9,7 13,3 9 5 11 6 SSW 1027,1 10 0 0,0
14.11.2017 18:00:00 5,6 0,9 -0,5 9,6 13,3 4 2 24 13 N 1025,8 10 5 0,0
14.11.2017 17:00:00 7,6 1,6 6,0 9,5 13,3 9 5 19 10 N 1025,2 10 60 0,0
14.11.2017 16:00:00 9,1 0,8 13,9 9,4 13,3 11 6 20 11 NNE 1025,0 10 60 0,0
14.11.2017 15:00:00 9,6 0,7 17,4 9,3 13,3 11 6 23 12 NNE 1025,2 10 60 0,0
14.11.2017 14:00:00 9,6 0,7 18,4 9,3 13,3 8 4 19 10 - 1025,7 10 60 0,0
14.11.2017 13:00:00 8,7 0,9 16,1 9,3 13,3 9 5 21 11 NNE 1026,5 10 60 0,0
14.11.2017 12:00:00 8,1 -0,2 14,1 9,4 13,3 11 6 20 11 NE 1027,2 15 60 0,0

tt = Température de l'air
td = dewpoint
tt 5cm = Température de l'air 5cm
tt -20cm = Température de l'air -20cm
tt -100cm = Température de l'air -100cm
ff = Vitesse du vent
fx = gusts
dd = Direction du vent
ppp = reduced air pressure
vv = visibility
sd = Ensoleillement
rr = Quantités de précipitations

stations d'obs. à proximité